Location: Kellogg
(38.0159°N, 90.0546°W)
Time: 21:59:39
(UTC+00:00)

SR - Pass Details

Date: 14 September 2024
Orbit: 578 x 855 km, 66.7° (Epoch: 09 October)

Event Time Altitude Azimuth Distance (km) Brightness Sun altitude
Rises 03:01:15 0° 350° (N) 2,931 ? -32.3°
Enters shadow 03:04:17 - 13° (NNE) 2,122 ? -32.8°
Reaches altitude 10° 03:04:32 10° 15° (NNE) 2,074 - -32.8°
Maximum altitude 03:07:03 14° 48° (NE) 1,847 - -33.2°
Drops below altitude 10° 03:09:39 10° 80° (E) 2,164 - -33.6°
Sets 03:13:12 0° 105° (ESE) 3,149 - -34.2°
